This is the latest recevied weather packets stored in our database for station/object SA7AHC. If no packets are shown the sender has not sent any weather packets the latest 10 day(s).
| Time | Temp. | Humidity | Pressure | Rain* | Wind** | Luminosity | Snow |
|---|---|---|---|---|---|---|---|
| 1788633509 | 11.11° C | 97% | 1007.4 hPa | 0.25 mm | - | 0 W/m² | - |
| 1788632909 | 11.11° C | 97% | 1007.4 hPa | 0.51 mm | - | 0 W/m² | - |
| 1788632308 | 11.11° C | 97% | 1007.3 hPa | 0.76 mm | - | 0 W/m² | - |
| 1788631709 | 11.11° C | 97% | 1007.4 hPa | 0.76 mm | - | 0 W/m² | - |
| 1788631109 | 11.11° C | 97% | 1007.4 hPa | 0.76 mm | - | 0 W/m² | - |
| 1788630509 | 11.11° C | 97% | 1007.2 hPa | 0.76 mm | - | 0 W/m² | - |
| 1788629909 | 11.11° C | 97% | 1007.2 hPa | 1.02 mm | - | 0 W/m² | - |
| 1788629309 | 11.11° C | 97% | 1007.2 hPa | 1.02 mm | - | 5 W/m² | - |
| 1788628709 | 11.11° C | 96% | 1006.9 hPa | 1.52 mm | - | 7 W/m² | - |
| 1788628110 | 11.11° C | 96% | 1007 hPa | 1.52 mm | - | 12 W/m² | - |
| 1788627509 | 11.11° C | 96% | 1007 hPa | 2.54 mm | - | 28 W/m² | - |
| 1788626909 | 11.11° C | 96% | 1007.1 hPa | 4.32 mm | - | 149 W/m² | - |
| 1788626308 | 11.11° C | 96% | 1006.7 hPa | 4.32 mm | - | 60 W/m² | - |
| 1788625709 | 10.56° C | 95% | 1006.7 hPa | 4.32 mm | - | 0 W/m² | - |
| 1788625109 | 11.11° C | 95% | 1006.4 hPa | 4.83 mm | - | 32 W/m² | - |
| 1788624509 | 11.11° C | 94% | 1006.6 hPa | 4.57 mm | - | 65 W/m² | - |
| 1788623940 | 12.22° C | 95% | 1006.7 hPa | 5.08 mm | - | 35 W/m² | - |
| 1788623309 | 12.22° C | 95% | 1006.3 hPa | 3.3 mm | - | 58 W/m² | - |
| 1788622710 | 12.22° C | 94% | 1006.2 hPa | 3.3 mm | - | 35 W/m² | - |
| 1788622110 | 12.78° C | 93% | 1006.3 hPa | 3.05 mm | - | 53 W/m² | - |
| 1788621510 | 12.78° C | 92% | 1006.3 hPa | 1.78 mm | - | 121 W/m² | - |
| 1788620909 | 12.78° C | 90% | 1006 hPa | 1.78 mm | - | 97 W/m² | - |
| 1788620310 | 13.89° C | 85% | 1006.1 hPa | 0 mm | - | 44 W/m² | - |
| 1788619710 | 13.89° C | 84% | 1006 hPa | 0 mm | - | 65 W/m² | - |
| 1788619109 | 14.44° C | 82% | 1005.9 hPa | 0 mm | - | 58 W/m² | - |
* Rain latest hour (hover to see other rain measurements)
** Current wind speed in m/s (hover to see current wind gust speed)